Fitchburg, MA

10:50 AM EDT on October 22, 2019 (GMT -0400)
Fitchburg Municipal

Weather History for KFIT - May, 2019

Change the Weather History Date:

Saturday, May 18, 2019

  Actual Average (KORH) Record (KORH)
Temperature  
Mean Temperature 62 °F 57 °F  
Max Temperature 75 °F 67 °F 90 °F (1906)
Min Temperature 48 °F 47 °F 33 °F (2002)
Degree Days  
Heating Degree Days 4 9  
Month to date heating degree days 197  
Since 1 July heating degree days 6544  
Cooling Degree Days 0 1  
Month to date cooling degree days 3  
Year to date cooling degree days 6  
Growing Degree Days 12 (Base 50)    
Moisture  
Dew Point 39 °F    
Average Humidity 47    
Maximum Humidity 80    
Minimum Humidity 22    
Precipitation  
Precipitation 0.00 in 0.13 in 1.60 in (1945)
Month to date precipitation 2.28  
Year to date precipitation 17.32  
Sea Level Pressure  
Sea Level Pressure 29.94 in    
Wind  
Wind Speed 9 mph (NNW)    
Max Wind Speed 15 mph    
Max Gust Speed 26 mph    
Visibility 10 miles    
Events      
T = Trace of Precipitation, MM = Missing Value Source: NWS Daily Summary

Daily Weather History Graph

Daily Weather History Graph

Search for Another Location

Airport or City:

Astronomy

May. 18, 2019 Rise Set
Actual Time 5:22 AM EDT 8:05 PM EDT
Civil Twilight 4:49 AM EDT 8:37 PM EDT
Nautical Twilight 4:08 AM EDT 9:19 PM EDT
Astronomical Twilight 3:21 AM EDT 10:06 PM EDT
Moon 7:55 PM EDT (5/18) 5:29 AM EDT (5/18)
Length of Visible Light 15h 48m
Length of Day
14h 42m
Full, 100% of the Moon is Illuminated
May 18
Full
May 18
Full
May 26
Last Quarter
Jun 3
New
Jun 10
First Quarter

Hourly Weather History & Observations

Time (EDT) Temp. Dew Point Humidity Pressure Visibility Wind Dir Wind Speed Gust Speed Precip Events Conditions
12:52 AM 55.9 °F 45.0 °F 67% 29.78 in 10.0 mi WNW 11.5 mph - N/A   Clear
1:52 AM 55.0 °F 44.1 °F 67% 29.79 in 10.0 mi WNW 11.5 mph - N/A   Clear
2:52 AM 52.0 °F 44.1 °F 74% 29.81 in 10.0 mi NNW 5.8 mph - N/A   Clear
3:52 AM 48.9 °F 43.0 °F 80% 29.81 in 10.0 mi Variable 3.5 mph - N/A   Clear
4:52 AM 50.0 °F 39.0 °F 66% 29.84 in 10.0 mi NNW 12.7 mph - N/A   Clear
5:52 AM 48.0 °F 37.0 °F 66% 29.88 in 10.0 mi NW 6.9 mph - N/A   Clear
6:52 AM 53.1 °F 36.0 °F 52% 29.90 in 10.0 mi NW 11.5 mph 19.6 mph N/A   Clear
7:52 AM 55.9 °F 35.1 °F 45% 29.91 in 10.0 mi NNW 15.0 mph - N/A   Clear
8:52 AM 59.0 °F 36.0 °F 42% 29.93 in 10.0 mi NW 11.5 mph 26.5 mph N/A   Unknown
9:52 AM 62.1 °F 37.0 °F 39% 29.94 in 10.0 mi NW 12.7 mph - N/A   Clear
10:52 AM 64.9 °F 37.0 °F 36% 29.95 in 10.0 mi NNW 15.0 mph 20.7 mph N/A   Clear
11:52 AM 69.1 °F 37.9 °F 32% 29.95 in 10.0 mi NW 10.4 mph 17.3 mph N/A   Clear
12:52 PM 70.0 °F 37.0 °F 30% 29.94 in 10.0 mi WNW 6.9 mph - N/A   Clear
1:52 PM 73.0 °F 39.0 °F 29% 29.94 in 10.0 mi North 9.2 mph - N/A   Clear
2:52 PM 73.0 °F 36.0 °F 26% 29.94 in 10.0 mi Calm Calm - N/A   Clear
3:52 PM 75.0 °F 35.1 °F 23% 29.94 in 10.0 mi NW 6.9 mph - N/A   Clear
4:52 PM 73.9 °F 35.1 °F 24% 29.94 in 10.0 mi WSW 5.8 mph - N/A   Clear
5:52 PM 73.9 °F 33.1 °F 22% 29.96 in 10.0 mi NW 10.4 mph - N/A   Clear
6:52 PM 72.0 °F 37.9 °F 29% 29.98 in 10.0 mi NE 5.8 mph - N/A   Clear
7:52 PM 64.0 °F 41.0 °F 43% 30.02 in 10.0 mi East 5.8 mph - N/A   Clear
8:52 PM 60.1 °F 41.0 °F 49% 30.05 in 10.0 mi East 5.8 mph - N/A   Clear
9:52 PM 57.9 °F 41.0 °F 53% 30.08 in 10.0 mi NE 4.6 mph - N/A   Overcast
10:52 PM 55.0 °F 42.1 °F 62% 30.09 in 10.0 mi Calm Calm - N/A   Scattered Clouds
11:52 PM 53.1 °F 42.1 °F 66% 30.09 in 10.0 mi Calm Calm - N/A   Clear